星链-34535 (STARLINK-34535)

导读

STARLINK-3455卫星由美国于2025年6月28日发射,是太空探索技术公司(SpaceX)星链(Starlink)星座组网的卫星之一。星链项目旨在通过低轨卫星星座为全球提供高速互联网接入服务,该卫星入轨后将进一步扩充星链星座规模,提升全球网络覆盖能力与服务稳定性。

Basic Information
目录编号:
64698
目录名称:
STARLINK-34535
国际标识:
2025-142C
轨道中心:
EARTH
卫星名称:
星链-34535
卫星全名:
星链-34535 (STARLINK-34535)
卫星状态:
在轨 (已飞行433 天)
发射日期:
2025-06-28 UTC
国别 :
美国 (US)
星等 :
--
Orbit Information
数据来源 国际轨道数据
星历时间: 2026-09-04T06:00:02+0800
9小时前
查看轨道信息
半长轴: 6863.738km
偏心率: 0.0003472
轨道倾角: 70.001°
近地点辐角 269.826°
升交点赤经 224.863°
平近点角 45.074°
近地点: 483.217km
远地点: 487.985km
周期: 94.319分钟
每日圈数: 15.267283
Detailed Information
固有亮度:
5
最大亮度:
2.5
卫星平台:
Starlink V1.0
覆盖范围:
全球
运营商:
太空探索技术公司
运营商所在国:
美国
制造商(研发单位):
太空探索技术公司
制造商所在国:
美国
使用方式:
暂无
Satellite Introduction
Starlink 计划是 SpaceX 推出的全球卫星互联网项目,通过发射低轨道卫星,为全球尤其是偏远地区提供高速、低延迟的互联网服务。自 2019 年起,Starlink 已部署数千颗卫星,旨在缩小全球数字鸿沟,推动互联网普及。该项目还为军事、航空等行业提供通信支持,带来广泛经济效益。
2D Orbit Map
3D Orbit Map
Orbit Altitude Analysis Chart
Orbit Inclination Analysis Chart
Orbit Comprehensive Analysis Chart
View Comprehensive Chart
Conjunction Data List
Event ID Objects TCA Miss Dist (km) Collision Risk Probability Collision Risk Index (CRI) Action
CDM_260905-085305-816206-469821
2026-09-05T
08:53:45+0000
1.916 km
极远距离
2.726062E-6 低风险 0.44
CDM_260905-055506-469806-975921
2026-09-05T
05:55:05+0000
2.214 km
极远距离
2.171371E-6 低风险 0.42
CDM_260905-085605-785806-469821
2026-09-05T
08:56:49+0000
2.174 km
极远距离
1.390662E-6 低风险 0.38
CDM_260905-072305-785806-469821
2026-09-05T
07:23:00+0000
2.416 km
极远距离
1.129348E-6 低风险 0.36